User: anonymous
Location: Lawrence Hall of Science
(37.8785°N, 122.2415°W)
Time: 14:12:00
(UTC-07:00)
Language:

Cosmos 2098 Rocket - Orbit

View from above orbital plane
View from above orbital plane
View from above satellite
View from above satellite

Ground track
Ground track

The orbit data is extracted from the following two-line orbital elements,

1 20775U 90078B   14292.46803066  .00011486  00000-0  61339-3 0  5391
2 20775 082.9299 119.5874 0635555 077.1676 326.6849 14.19518028210235
Epoch (UTC): 19 October 2014 11:13:57
Eccentricity: 0.0635555
inclination: 82.9299°
perigee height: 369 km
apogee height: 1285 km
right ascension of ascending node: 119.5874°
argument of perigee: 77.1676°
revolutions per day: 14.19518028
mean anomaly at epoch: 326.6849°
orbit number at epoch: 21023

The dashed part of the orbit path shows where the satellite is in the earth's shadow,  

DLR